• MPC Preparation (Info)

  • MPEC 2016-O54 : 2014 QW441

    The following Minor Planet Electronic Circular may be linked-to from your own Web pages, but must not otherwise be redistributed electronically.

    A form allowing access to any MPEC is at the bottom of this page.


    Read MPEC 2016-O53 Read MPEC 2016-O55


    M.P.E.C. 2016-O54                                Issued 2016 July 16, 21:44 UT
    
         The Minor Planet Electronic Circulars contain information on unusual
             minor planets and routine data on comets.  They are published
        on behalf of Division F of the International Astronomical Union by the
              Minor Planet Center, Smithsonian Astrophysical Observatory,
                              Cambridge, MA 02138, U.S.A.
    
                 Prepared using the Tamkin Foundation Computer Network
    
                                  MPC@CFA.HARVARD.EDU
                URL https://www.minorplanetcenter.net/    ISSN 1523-6714
    
                                      2014 QW441
    
    Observations:
         K14Qi1W  C2010 08 31.47635 23 33 49.488-07 39 15.43         20.9 iLEO054F51
         K14Qi1W  C2010 08 31.48732 23 33 49.432-07 39 15.91         20.8 iLEO054F51
         K14Qi1W  C2010 08 31.50165 23 33 49.369-07 39 16.60         21.1 rLEO054F51
         K14Qi1W  C2010 08 31.51344 23 33 49.312-07 39 16.97         21.0 rLEO054F51
         K14Qi1W  C2010 09 15.45214 23 32 41.684-07 48 38.07         21.0 wLEO054F51
         K14Qi1W  C2010 09 15.46195 23 32 41.641-07 48 38.44         20.9 wLEO054F51
         K14Qi1W  C2010 09 15.47211 23 32 41.592-07 48 38.73         21.0 wLEO054F51
         K14Qi1W  C2010 09 15.48223 23 32 41.549-07 48 39.12         20.9 wLEO054F51
         K14Qi1W  C2010 09 16.49247 23 32 36.910-07 49 16.43         21.0 wLEO054F51
         K14Qi1W  C2010 09 16.50391 23 32 36.857-07 49 16.78         20.9 wLEO054F51
         K14Qi1W  C2010 09 16.51547 23 32 36.804-07 49 17.22         20.8 wLEO054F51
         K14Qi1W  C2010 09 16.52692 23 32 36.750-07 49 17.64         20.8 wLEO054F51
         K14Qi1W  C2012 08 14.49241 23 47 19.714-07 44 41.19         21.2 wLEO054F51
         K14Qi1W  C2012 08 14.50747 23 47 19.649-07 44 41.90         21.0 wLEO054F51
         K14Qi1W  C2012 08 14.52250 23 47 19.589-07 44 42.40         21.3 wLEO054F51
         K14Qi1W  C2012 08 14.53757 23 47 19.527-07 44 43.05         21.1 wLEO054F51
         K14Qi1W  C2013 01 07.21933 23 41 48.221-08 26 50.80         21.3 wLEO054F51
         K14Qi1W  C2013 01 07.22464 23 41 48.239-08 26 50.74         21.2 wLEO054F51
         K14Qi1W  C2013 01 07.22994 23 41 48.250-08 26 51.00         21.3 wLEO054F51
         K14Qi1W  C2013 08 14.49807 23 53 31.999-07 51 53.08         21.0 wLEO054F51
         K14Qi1W  C2013 08 14.51212 23 53 31.951-07 51 53.60         21.1 wLEO054F51
         K14Qi1W  C2013 08 14.52618 23 53 31.898-07 51 54.22         21.1 wLEO054F51
         K14Qi1W  C2013 08 14.54022 23 53 31.848-07 51 54.71         21.1 wLEO054F51
         K14Qi1W  C2013 10 10.33844 23 49 26.652-08 26 38.41         21.0 rLEO054F51
         K14Qi1W  C2013 10 10.35138 23 49 26.597-08 26 38.64         20.9 rLEO054F51
         K14Qi1W  C2013 10 10.36295 23 49 26.545-08 26 38.94         21.4 gLEO054F51
         K14Qi1W  C2013 10 10.37453 23 49 26.493-08 26 39.34         21.3 gLEO054F51
         K14Qi1W  C2013 10 21.31804 23 48 42.296-08 31 49.19         21.1 rLEO054F51
         K14Qi1W  C2013 10 21.32849 23 48 42.235-08 31 49.26         21.1 rLEO054F51
         K14Qi1W  C2013 10 21.33999 23 48 42.202-08 31 49.60         20.8 iLEO054F51
         K14Qi1W  C2013 10 21.35161 23 48 42.157-08 31 50.09         20.7 iLEO054F51
         K14Qi1W* C2014 08 20.48316 23 59 23.115-08 02 29.75         21.1 wLEO054F51
         K14Qi1W  C2014 08 20.49534 23 59 23.071-08 02 30.13         21.0 wLEO054F51
         K14Qi1W  C2014 08 20.50751 23 59 23.025-08 02 30.65         21.0 wLEO054F51
         K14Qi1W  C2014 08 20.51969 23 59 22.977-08 02 31.14         21.1 wLEO054F51
         K14Qi1W  C2014 08 22.51872 23 59 15.462-08 03 47.14         21.1 wLEO054F51
         K14Qi1W  C2014 08 22.52991 23 59 15.420-08 03 47.60         21.0 wLEO054F51
         K14Qi1W  C2014 08 22.54107 23 59 15.376-08 03 48.01         21.1 wLEO054F51
         K14Qi1W  C2014 08 22.55227 23 59 15.336-08 03 48.44         21.1 wLEO054F51
         K14Qi1W  C2014 09 14.44213 23 57 37.986-08 18 35.72         21.0 iLEO054F51
         K14Qi1W  C2014 09 14.45377 23 57 37.928-08 18 35.95         20.9 iLEO054F51
         K14Qi1W  C2014 09 14.46543 23 57 37.866-08 18 36.31         20.8 iLEO054F51
         K14Qi1W  C2014 09 14.47705 23 57 37.797-08 18 36.98         21.0 iLEO054F51
         K14Qi1W  C2014 09 17.34346 23 57 24.710-08 20 26.03         21.2 wLEO054F51
         K14Qi1W  C2014 09 17.35532 23 57 24.659-08 20 26.36         21.1 wLEO054F51
         K14Qi1W  C2014 09 17.36717 23 57 24.598-08 20 26.90         21.1 wLEO054F51
         K14Qi1W  C2014 09 17.37902 23 57 24.544-08 20 27.34         21.0 wLEO054F51
         K14Qi1W  C2014 09 17.44814 23 57 24.222-08 20 29.94         21.0 wLEO054F51
         K14Qi1W  C2014 09 17.46087 23 57 24.163-08 20 30.42         21.1 wLEO054F51
         K14Qi1W  C2014 09 17.47515 23 57 24.095-08 20 30.88         21.1 wLEO054F51
         K14Qi1W  C2014 09 17.48785 23 57 24.033-08 20 31.44         21.1 wLEO054F51
         K14Qi1W  C2014 09 19.33732 23 57 15.540-08 21 41.01         21.0 wLEO054F51
         K14Qi1W  C2014 09 19.34876 23 57 15.489-08 21 41.50         21.1 wLEO054F51
         K14Qi1W  C2014 09 19.36020 23 57 15.440-08 21 41.95         21.1 wLEO054F51
         K14Qi1W  C2014 09 19.37166 23 57 15.385-08 21 42.40         21.0 wLEO054F51
         K14Qi1W  C2014 09 22.46211 23 57 01.141-08 23 37.41         21.3 wLEO054F51
         K14Qi1W  C2014 09 22.47491 23 57 01.074-08 23 37.77         21.1 wLEO054F51
         K14Qi1W  C2014 09 22.48772 23 57 01.021-08 23 38.27         21.2 wLEO054F51
         K14Qi1W  C2014 09 22.50053 23 57 00.956-08 23 38.73         21.1 wLEO054F51
         K14Qi1W  C2014 09 29.35693 23 56 29.426-08 27 45.22         21.1 wLEO054F51
         K14Qi1W  C2014 09 29.36848 23 56 29.372-08 27 45.63         20.8 wLEO054F51
         K14Qi1W  C2014 09 29.38006 23 56 29.328-08 27 46.00         20.5 wLEO054F51
         K14Qi1W  C2014 09 29.39166 23 56 29.259-08 27 46.34         20.7 wLEO054F51
         K14Qi1W  C2015 07 04.58108 00 07 06.028-07 45 08.29         20.9 iLEO054F51
         K14Qi1W  C2015 07 04.58701 00 07 06.009-07 45 08.61         20.7 iLEO054F51
         K14Qi1W  C2015 07 04.59385 00 07 06.021-07 45 08.79         21.0 iLEO054F51
         K14Qi1W  C2015 07 04.60164 00 07 06.006-07 45 08.80         20.7 iLEO054F51
    
    Observer details:
    F51 Pan-STARRS 1, Haleakala.  Observers B. Gibson, T. Goggia, N. Primak,
        A. Schultz, M. Willman.  Measurers K. Chambers, S. Chastel, Y.-T. Chen,
        L. Denneau, H. Flewelling, M. Holman, M. Huber, R. Jedicke, M. Lackner,
        E. Lilly, H.-W. Lin, E. Magnier, M. Micheli, M. Payne, P. Veres,
        R. Wainscoat, C. Waters, R. Weryk.  1.8-m Ritchey-Chretien + CCD.
    
    Orbital elements:
    2014 QW441
    Epoch 2016 July 31.0 TT = JDT 2457600.5                 MPC
    M 355.12368              (2000.0)            P               Q
    n   0.00336403     Peri.  203.84992     +0.97845607     -0.14887606
    a  44.1126243      Node   162.76555     +0.13932121     +0.98742595
    e   0.0992568      Incl.   28.86668     -0.15235919     -0.05315927
    P 293              H    5.0           G   0.15           U   2
    Residuals in seconds of arc
    100831 F51  0.0   0.0     131010 F51  0.1+  0.0     140917 F51  0.2-  0.2-
    100831 F51  0.1-  0.1-    131010 F51  0.1+  0.1+    140917 F51  0.1-  0.1-
    100831 F51  0.1-  0.2-    131010 F51  0.1+  0.2+    140917 F51  0.1-  0.1-
    100831 F51  0.1-  0.2-    131010 F51  0.0   0.1+    140917 F51  0.2-  0.1-
    100915 F51  0.1-  0.0     131021 F51  0.1+  0.0     140917 F51  0.2-  0.1-
    100915 F51  0.0   0.0     131021 F51  0.2-  0.2+    140919 F51  0.2-  0.0
    100915 F51  0.1-  0.1+    131021 F51  0.0   0.1+    140919 F51  0.2-  0.1-
    100915 F51  0.0   0.1+    131021 F51  0.0   0.1-    140919 F51  0.1-  0.1-
    100916 F51  0.0   0.0     140820 F51  0.1+  0.1+    140919 F51  0.1-  0.1-
    100916 F51  0.1+  0.1+    140820 F51  0.1+  0.2+    140922 F51  0.1+  0.2-
    100916 F51  0.1+  0.1+    140820 F51  0.1+  0.2+    140922 F51  0.0   0.1-
    100916 F51  0.1+  0.1+    140820 F51  0.1+  0.1+    140922 F51  0.1+  0.1-
    120814 F51  0.1+  0.1+    140822 F51  0.1+  0.2+    140922 F51  0.1+  0.1-
    120814 F51  0.0   0.1-    140822 F51  0.1+  0.1+    140929 F51  0.1+  0.1+
    120814 F51  0.1-  0.0     140822 F51  0.1+  0.2+    140929 F51  0.1+  0.1+
    120814 F51  0.2-  0.1-    140822 F51  0.1+  0.2+    140929 F51  0.2+  0.1+
    130107 F51  0.2+  0.1+    140914 F51  0.0   0.3-    140929 F51  0.0   0.2+
    130107 F51  0.3+  0.0     140914 F51  0.0   0.1-    150704 F51  0.2+  0.3+
    130107 F51  0.2+  0.3-    140914 F51  0.1-  0.0     150704 F51  0.1-  0.1+
    130814 F51  0.0   0.1+    140914 F51  0.4-  0.3-    150704 F51  0.1+  0.0
    130814 F51  0.1+  0.0     140917 F51  0.2-  0.2-    150704 F51  0.1-  0.2+
    130814 F51  0.0   0.1-    140917 F51  0.1-  0.1-
    130814 F51  0.0   0.0     140917 F51  0.2-  0.2-
    
    Ephemeris:
    2014 QW441               a,e,i = 44.11, 0.10, 29                 q = 39.734
    Date    TT    R. A. (2000) Decl.     Delta      r     Elong.  Phase     V
    2016 06 16    00 12 53.9 -07 46 55  39.8258 39.7549    85.3     1.5    21.2
    ...
    2016 07 01    00 13 11.0 -07 50 27  39.5761 39.7545    99.4     1.4    21.2
    ...
    2016 07 09    00 13 11.8 -07 53 13  39.4462 39.7543   106.9     1.4    21.2
    ...
    2016 07 15    00 13 08.5 -07 55 40  39.3522 39.7541   112.6     1.4    21.2
    2016 07 16    00 13 07.7 -07 56 07  39.3369 39.7541   113.6     1.3    21.2
    2016 07 17    00 13 06.8 -07 56 34  39.3218 39.7541   114.5     1.3    21.2
    ...
    2016 07 23    00 12 59.3 -07 59 24  39.2333 39.7539   120.2     1.3    21.1
    ...
    2016 07 31    00 12 44.7 -08 03 36  39.1236 39.7537   127.8     1.2    21.1
    ...
    2016 08 15    00 12 04.2 -08 12 28  38.9500 39.7533   142.0     0.9    21.1
    
    A. U. Tomatic                (C) Copyright 2016 MPC           M.P.E.C. 2016-O54
    

    Read MPEC 2016-O53 Read MPEC 2016-O55


    MPEC number:

    Enter an MPEC number in one of the following forms:

    • 1997-B01 (the full form)
    • J97B01 (the packed version of the full form)
    • B01 (the abbreviated form)